WE3C Weather Reports


time (UTC)temp
C
wind
direction
speed
KPH
gust
KPH
rain 1hr
cm
rain 24hr
cm
rain mn
cm
humidity
%
barometer
mb
20260504081521 8 222 0.0 0.0 0.00 0.00 0.00 56 1019.7
20260504044603 8 221 0.0 0.0 0.00 0.00 0.00 54 1019.7
20260504043056 8 360 0.0 0.0 0.00 0.00 0.00 54 1019.7
20260504041554 8 228 0.0 0.0 0.00 0.00 0.00 53 1019.6
20260504040049 8 219 0.0 0.0 0.00 0.00 0.00 52 1019.5
20260504034605 8 211 0.0 0.0 0.00 0.00 0.00 54 1019.1
20260504033046 8 360 0.0 0.0 0.00 0.00 0.00 57 1019.1
20260504031546 8 217 0.0 0.0 0.00 0.00 0.00 55 1019.2
20260504030045 8 360 0.0 0.0 0.00 0.00 0.00 57 1019.0
20260504024645 8 360 0.0 0.0 0.00 0.00 0.00 56 1019.2
20260504023009 8 225 0.0 0.0 0.00 0.00 0.00 53 1019.2
20260504021507 8 360 0.0 0.0 0.00 0.00 0.00 55 1019.2
20260504020007 8 239 0.0 0.0 0.00 0.00 0.00 57 1019.2
20260504014504 8 240 0.0 0.0 0.00 0.00 0.00 57 1019.0
20260504013003 8 250 0.0 0.0 0.00 0.00 0.00 56 1019.1
20260504011503 9 249 0.0 0.0 0.00 0.00 0.00 55 1019.0
20260504004558 9 252 0.0 0.0 0.00 0.00 0.00 55 1018.7
20260504003100 10 257 0.0 0.0 0.00 0.00 0.00 54 1018.5
20260504001609 11 257 0.0 0.0 0.00 0.00 0.00 51 1018.1
20260504000057 11 248 0.0 0.0 0.00 0.00 0.00 46 1018.2
20260503234556 12 360 0.0 0.0 0.00 0.00 0.00 41 1017.9
20260503233055 12 360 0.0 0.0 0.00 0.00 0.00 41 1017.9
20260503231555 12 259 0.0 0.0 0.00 0.00 0.00 39 1017.9
20260503230059 13 248 0.0 0.0 0.00 0.00 0.00 39 1017.9
20260503224555 13 248 0.0 0.0 0.00 0.00 0.00 37 1017.8
20260503223052 13 254 0.0 0.0 0.00 0.00 0.00 39 1017.7
20260503221552 13 305 0.0 0.0 0.00 0.00 0.00 41 1017.7
20260503220051 13 310 0.0 0.0 0.00 0.00 0.00 37 1017.8
20260503180033 12 289 0.0 0.0 0.00 0.00 0.00 41 1018.9
20260503174530 12 318 0.0 0.0 0.00 0.00 0.00 42 1019.0
20260503173030 11 329 0.0 0.0 0.00 0.00 0.00 40 1019.1
20260503171529 11 331 0.0 0.0 0.00 0.00 0.00 43 1019.2